Location: Newark
(25.4800°N, 85.7200°E)
Time: 22:12:59
(UTC+00:00)

Explorer 11/Cluster Stage 4 - Pass Details

Date: 20 August 2019
Orbit: 467 x 1260 km, 28.8° (Epoch: 15 September)

Event Time Altitude Azimuth Distance (km) Brightness Sun altitude
Rises 03:10:00 0° 213° (SSW) 4,017 10.0 43.4°
Reaches altitude 10° 03:13:17 10° 201° (SSW) 3,135 9.6 44.1°
Maximum altitude 03:19:40 26° 148° (SSE) 2,226 9.7 45.5°
Drops below altitude 10° 03:26:11 10° 96° (E) 3,211 10.7 47.0°
Sets 03:29:34 0° 84° (E) 4,133 10.9 47.8°
